Starlink 31506

operational
NORAD ID: 59259 Int'l Des: 2024-050 Owner: SPXS Country: US Constellation: starlink
LEOCIRCULAR

About Starlink 31506

Description loading...

Live Position

Loading 3D Globe...

Upcoming Passes

Altitude History

Altitude vs Time

uPlot chart will show altitude changes over time

Two-Line Element Set

1 59259U 24050F 25353.84324079 .00000279 00000-0 21552-4 0 9993
2 59259 53.1585 191.8785 0000980 83.6534 276.4579 15.30194018 98328
Epoch: Dec 19, 2025 • Age: 14 hours

Current Status

Altitude 494.4 km
Velocity 7.62 km/s
Sub-Earth Point -53.09°S, 146.26°W
Launch Date Mar 19, 2024
Age 1.7 years
Type internet

Technical Details

Classification Payload
Mass 730.00 kg
Dry Mass 700.00 kg
Total Mass 730.00 kg
Length 0.30 m
Diameter 4.10 m
Span 29.00 m
Shape Box + pan
Manufacturer SPXS
Bus Type Starlink V2M
Phase Status In Orbit
Owner/State SPXS/US

Large Constellations

Loading constellations...